[[{"header":{"parameterUnit":"m.s-1","parameterCategory":1,"la1":30.2991,"la2":30.254,"lo1":-89.0895,"lo2":-89.0444,"dy":0.0017,"dx":0.0017,"nx":28,"ny":28,"refTime":"2024-03-13T21:00:00:Z","depth":0,"parameterNumber":2,"parameterNumberName":"U-component_of_WINDS"},"data":[0,0,0,0,0,0,0,0,0,0,0,0,0,0,0,0,0,0,0,0,0,0,0,0,0,0,0,0,0,0,0,0,0,0,0,0,0,0,0,0,0,0,0,0,0,0,0,0,0,0,0,0,0,0,0,0,0,0,-2.4606,-2.4606,0,-2.4642,-2.4642,-2.4643,-2.4608,-2.4607,-2.4606,-2.4604,-2.4641,-2.4644,-2.4646,0,0,0,0,0,0,0,0,0,0,0,0,0,-2.4509,-2.4511,-2.4606,-2.4606,-2.4607,-2.4642,-2.4642,-2.4643,-2.4609,-2.4607,-2.4605,-2.4604,-2.4641,-2.4643,-2.4646,0,0,0,0,0,0,0,0,0,0,0,0,0,-2.4549,-2.4512,-2.4606,-2.4594,-2.4593,-2.4642,-2.4642,-2.4643,-2.4609,-2.4607,-2.4605,-2.4603,-2.464,-2.4643,-2.4646,-2.4708,0,0,-2.4657,-2.4658,0,0,0,0,0,0,0,0,-2.4547,-2.4552,-2.4595,-2.4595,-2.4594,-2.4618,-2.4622,-2.4665,-2.4609,-2.4603,-2.4604,-2.4602,-2.4635,-2.4639,-2.465,-2.471,-2.4712,-2.4657,-2.4659,-2.4661,-2.4662,0,0,0,0,0,0,0,-2.4544,-2.4551,-2.462,-2.4596,-2.4595,-2.4587,-2.4591,-2.463,-2.463,-2.4603,-2.4601,-2.4606,-2.4635,-2.4647,-2.4651,-2.4712,-2.4657,-2.466,-2.4662,-2.4663,-2.4826,-2.4828,0,0,0,0,0,0,-2.4542,-2.4549,-2.4619,-2.4621,-2.4565,-2.4591,-2.4595,-2.4613,-2.463,-2.463,-2.4607,-2.4604,-2.4642,-2.4647,-2.4652,-2.4726,-2.4661,-2.4664,-2.4666,-2.4824,-2.4826,-2.4829,0,0,0,0,0,0,-2.454,-2.4549,-2.4618,-2.4584,-2.4592,-2.4595,-2.4615,-2.4615,-2.4627,-2.4633,-2.4633,-2.462,-2.4641,-2.4647,-2.4695,-2.4727,-2.4665,-2.4668,-2.4821,-2.4824,-2.4828,-2.4875,0,0,0,0,0,0,-2.4538,-2.4549,-2.4572,-2.4585,-2.4594,-2.4659,-2.4617,-2.4617,-2.4633,-2.4629,-2.4644,-2.4645,-2.464,-2.469,-2.4698,-2.4731,-2.4671,-2.4818,-2.4823,-2.4827,-2.4871,-2.488,-2.4888,0,0,0,0,0,-2.4535,-2.4583,-2.4573,-2.4582,-2.4623,-2.4661,-2.4667,-2.4659,-2.4635,-2.4659,-2.4663,-2.4645,-2.4722,-2.4695,-2.4704,-2.4738,-2.4816,-2.4821,-2.4826,-2.4867,-2.4878,-2.4887,0,0,0,0,0,0,-2.4574,-2.4585,-2.4573,-2.4628,-2.4644,-2.4655,-2.4685,-2.4671,-2.4694,-2.4689,-2.468,-2.4684,-2.4734,-2.4741,-2.471,-2.48,-2.4765,-2.4773,-2.4793,-2.4804,-2.4812,-2.4809,-2.4674,0,0,0,0,0,-2.4589,-2.4618,-2.4627,-2.4674,-2.4683,-2.4683,-2.4699,-2.4692,-2.4708,-2.4715,-2.4722,-2.4739,-2.4767,-2.4786,-2.4812,-2.4872,-2.4875,-2.49,-2.4908,-2.4915,-2.4921,-2.4954,-2.4966,-2.4846,-2.4846,-2.4846,0,0,-2.462,-2.463,-2.4649,-2.4682,-2.4694,-2.4725,-2.4688,-2.4723,-2.4746,-2.472,-2.4765,-2.4772,-2.479,-2.4844,-2.4868,-2.4851,-2.4955,-2.4921,-2.4927,-2.493,-2.4961,-2.4972,-2.4982,-2.4849,-2.4849,-2.4848,0,0,-2.4693,-2.4703,-2.4744,-2.4757,-2.4775,-2.4775,-2.4785,-2.4798,-2.4802,-2.4847,-2.4828,-2.4856,-2.4905,-2.4919,-2.4932,-2.5012,-2.4996,-2.5021,-2.5065,-2.5097,-2.5107,-2.5115,-2.5144,-2.5155,-2.5027,-2.5027,-2.5027,0,-2.4729,-2.4776,-2.4767,-2.4803,-2.4819,-2.4797,-2.4839,-2.4851,-2.4877,-2.4889,-2.4869,-2.4931,-2.4941,-2.4999,-2.5018,-2.503,-2.5042,-2.5019,-2.5106,-2.5114,-2.5122,-2.515,-2.516,-2.503,-2.503,-2.503,-2.5029,0,-2.482,-2.4853,-2.4884,-2.491,-2.4929,-2.4968,-2.4966,-2.4986,-2.4978,-2.498,-2.5027,-2.5039,-2.5068,-2.5081,-2.5073,-2.5138,-2.5127,-2.5107,-2.5073,-2.5136,-2.5162,-2.5173,-2.5034,-2.5033,-2.5032,-2.5032,0,0,-2.4918,-2.4939,-2.4951,-2.4963,-2.4982,-2.5007,-2.5045,-2.5074,-2.5092,-2.5111,-2.5143,-2.5185,-2.5167,-2.5183,-2.5176,-2.5205,-2.5268,-2.5181,-2.5182,-2.5197,-2.5341,-2.5357,-2.5369,-2.5258,-2.526,-2.5262,-2.534,0,-2.4992,-2.5059,-2.5053,-2.5116,-2.5146,-2.5126,-2.516,-2.5176,-2.5179,-2.5206,-2.5209,-2.524,-2.5213,-2.5223,-2.525,-2.5255,-2.5297,-2.5249,-2.5289,-2.529,-2.5285,-2.5382,-2.5398,-2.5472,-2.535,-2.5352,-2.5353,0,-2.5087,-2.511,-2.5176,-2.5191,-2.5204,-2.5234,-2.526,-2.5286,-2.5304,-2.5304,-2.5322,-2.5311,-2.5351,-2.5315,-2.537,-2.5338,-2.5354,-2.5359,-2.5361,-2.5365,-2.5325,-2.5389,-2.5495,-2.5506,-2.5369,-2.5367,-2.5366,0,-2.5153,-2.52,-2.5246,-2.5257,-2.5275,-2.5297,-2.5306,-2.5322,-2.534,-2.5362,-2.5374,-2.5401,-2.5416,-2.5438,-2.5435,-2.541,-2.5491,-2.5455,-2.5493,-2.5493,-2.5511,-2.551,-2.5622,-2.5521,-2.5521,-2.5521,-2.5521,0,-2.5236,-2.5278,-2.5276,-2.5304,-2.535,-2.5344,-2.539,-2.5396,-2.541,-2.544,-2.5425,-2.5453,-2.5447,-2.5476,-2.5474,-2.552,-2.5527,-2.5529,-2.5528,-2.5531,-2.553,-2.5541,-2.5536,-2.5524,-2.5523,-2.5523,-2.5522,0,-2.5317,-2.5317,-2.5366,-2.538,-2.5385,-2.5419,-2.5431,-2.5458,-2.546,-2.5498,-2.5507,-2.5511,-2.5544,-2.5543,-2.558,-2.5579,-2.5636,-2.5629,-2.563,-2.5629,-2.5667,-2.5664,-2.5789,-2.5806,-2.5694,-2.5695,-2.5696,0,-2.5371,-2.5402,-2.542,-2.5439,-2.5449,-2.548,-2.5498,-2.5493,-2.5512,-2.5535,-2.556,-2.5592,-2.5616,-2.567,-2.5676,-2.5705,-2.5699,-2.5741,-2.5703,-2.5705,-2.5701,-2.5699,-2.5702,-2.5749,-2.575,-2.5751,-2.5752,0,-2.5466,-2.5465,-2.5491,-2.5519,-2.5541,-2.5562,-2.5581,-2.5598,-2.5595,-2.5618,-2.5651,-2.5671,-2.5709,-2.5741,-2.5769,-2.5778,-2.5765,-2.5764,-2.5774,-2.5777,-2.5777,-2.5778,-2.5651,-2.5761,-2.576,-2.5759,-2.5759,-2.5758,-2.5535,-2.5563,-2.558,-2.561,-2.5624,-2.5643,-2.567,-2.5676,-2.5704,-2.5734,-2.573,-2.5767,-2.5785,-2.5822,-2.5834,-2.5864,-2.5849,-2.5864,-2.5868,-2.5871,-2.5876,-2.5772,-2.5869,-2.5868,-2.5868,-2.5868,-2.5868,0,-2.563,-2.564,-2.5668,-2.5696,-2.5721,-2.5706,-2.5727,-2.5749,-2.5782,-2.58,-2.5825,-2.5864,-2.5895,-2.5904,-2.5934,-2.5956,-2.5951,-2.5964,-2.5963,-2.5966,-2.5887,-2.5875,-2.5968,-2.5968,-2.5968,-2.5968,-2.5968,-2.5968,-2.5682,-2.5729,-2.573,-2.5783,-2.5793,-2.583,-2.5843,-2.5861,-2.5875,-2.5919,-2.5945,-2.5951,-2.5965,-2.5997,-2.6025,-2.6027,-2.6039,-2.6055,-2.6054,-2.5981,-2.5971,-2.5961,-2.595,-2.6057,-2.6057,-2.613,-2.6131,-2.6132]},{"header":{"parameterUnit":"m.s-1","parameterCategory":1,"la1":30.2991,"la2":30.254,"lo1":-89.0895,"lo2":-89.0444,"dy":0.0017,"dx":0.0017,"nx":28,"ny":28,"refTime":"2024-03-13T21:00:00:Z","depth":0,"parameterNumber":3,"parameterNumberName":"V-component_of_WINDS"},"data":[0,0,0,0,0,0,0,0,0,0,0,0,0,0,0,0,0,0,0,0,0,0,0,0,0,0,0,0,0,0,0,0,0,0,0,0,0,0,0,0,0,0,0,0,0,0,0,0,0,0,0,0,0,0,0,0,0,0,1.2545,1.2545,0,1.2545,1.2545,1.2545,1.2531,1.2531,1.2531,1.253,1.2529,1.2529,1.2529,0,0,0,0,0,0,0,0,0,0,0,0,0,1.2536,1.2536,1.2545,1.2545,1.2545,1.2545,1.2545,1.2545,1.2531,1.2531,1.2531,1.253,1.2529,1.2529,1.2529,0,0,0,0,0,0,0,0,0,0,0,0,0,1.2538,1.2536,1.2545,1.2539,1.2538,1.2545,1.2545,1.2545,1.2532,1.2531,1.253,1.253,1.2529,1.2529,1.253,1.2542,0,0,1.2531,1.2531,0,0,0,0,0,0,0,0,1.2538,1.2538,1.254,1.2539,1.2538,1.2538,1.2541,1.2544,1.2532,1.2534,1.253,1.253,1.2532,1.2532,1.2533,1.2542,1.2542,1.2531,1.2531,1.2531,1.2531,0,0,0,0,0,0,0,1.2538,1.2538,1.2545,1.254,1.2539,1.2536,1.2536,1.2541,1.2536,1.2534,1.2533,1.2533,1.2532,1.2533,1.2533,1.2542,1.2531,1.2531,1.2531,1.2532,1.2564,1.2565,0,0,0,0,0,0,1.2538,1.2538,1.2545,1.2545,1.2537,1.2536,1.2536,1.2538,1.2536,1.2535,1.2533,1.2532,1.2532,1.2533,1.2533,1.255,1.2531,1.2532,1.2532,1.2564,1.2564,1.2565,0,0,0,0,0,0,1.2538,1.2539,1.2545,1.2541,1.2542,1.2537,1.254,1.2539,1.254,1.2536,1.2535,1.2535,1.2532,1.2532,1.2541,1.2549,1.2532,1.2532,1.2563,1.2564,1.2565,1.2582,0,0,0,0,0,0,1.2538,1.2539,1.2544,1.2542,1.2542,1.2553,1.254,1.2539,1.2541,1.2539,1.2537,1.2536,1.2532,1.254,1.2541,1.255,1.2533,1.2562,1.2563,1.2564,1.258,1.2583,1.2586,0,0,0,0,0,1.2538,1.2548,1.2544,1.2545,1.2548,1.2553,1.2553,1.2548,1.2541,1.2546,1.2544,1.2536,1.2548,1.2541,1.2542,1.2551,1.2562,1.2563,1.2564,1.2579,1.2583,1.2586,0,0,0,0,0,0,1.255,1.2547,1.2543,1.2553,1.2553,1.2551,1.2557,1.2551,1.2553,1.2552,1.2545,1.2545,1.2555,1.2553,1.2546,1.2564,1.2554,1.2555,1.2565,1.2568,1.257,1.2571,1.2533,0,0,0,0,0,1.2554,1.2559,1.2556,1.2565,1.2565,1.2561,1.2563,1.2559,1.2559,1.2559,1.2558,1.2558,1.2562,1.2565,1.2568,1.258,1.2581,1.2587,1.2589,1.2591,1.2593,1.2602,1.2605,1.257,1.257,1.257,0,0,1.2562,1.2561,1.2564,1.2567,1.2567,1.2573,1.2561,1.2567,1.2571,1.256,1.2569,1.2567,1.2568,1.2579,1.2583,1.2578,1.2603,1.2593,1.2595,1.2596,1.2604,1.2607,1.261,1.2571,1.257,1.257,0,0,1.2579,1.2578,1.2587,1.2588,1.2588,1.2586,1.2588,1.2587,1.2586,1.2594,1.2587,1.2592,1.2598,1.26,1.2601,1.2622,1.2616,1.2623,1.2636,1.2645,1.2648,1.265,1.266,1.2663,1.2625,1.2625,1.2625,0,1.2589,1.2597,1.2591,1.2599,1.2601,1.2592,1.2601,1.2602,1.2604,1.2606,1.26,1.261,1.2609,1.2621,1.2627,1.2627,1.2631,1.2623,1.2648,1.265,1.2653,1.2661,1.2665,1.2626,1.2625,1.2625,1.2625,0,1.261,1.2616,1.2622,1.2626,1.2628,1.2636,1.2633,1.2637,1.2633,1.2631,1.2641,1.264,1.2644,1.2647,1.2642,1.2659,1.2656,1.2649,1.2638,1.2657,1.2665,1.2668,1.2627,1.2627,1.2626,1.2626,0,0,1.2634,1.2636,1.2638,1.2641,1.2642,1.2646,1.2655,1.266,1.2664,1.2665,1.2673,1.268,1.2674,1.2676,1.2672,1.2679,1.2699,1.2672,1.2672,1.2678,1.2719,1.2726,1.2729,1.2694,1.2695,1.2695,1.272,0,1.2652,1.2667,1.2663,1.2678,1.2684,1.2677,1.2685,1.2687,1.2686,1.2691,1.269,1.2696,1.2687,1.2689,1.2696,1.2695,1.2707,1.2693,1.2703,1.2703,1.2704,1.2733,1.2739,1.2762,1.2723,1.2723,1.2724,0,1.2675,1.2679,1.2695,1.2698,1.27,1.2707,1.2712,1.2717,1.272,1.2719,1.2723,1.2718,1.2727,1.2716,1.273,1.2721,1.2724,1.2725,1.2726,1.2727,1.2715,1.2737,1.2769,1.2773,1.2728,1.2728,1.2728,0,1.2693,1.2703,1.2714,1.2716,1.2719,1.2724,1.2725,1.2728,1.2732,1.2736,1.2739,1.2745,1.2748,1.2753,1.275,1.2742,1.2765,1.2753,1.2765,1.2766,1.2771,1.2771,1.2806,1.2771,1.2771,1.2771,1.2771,0,1.2714,1.2725,1.2723,1.273,1.2742,1.2738,1.275,1.275,1.2753,1.2761,1.2754,1.2762,1.2757,1.2764,1.2762,1.2775,1.2776,1.2777,1.2776,1.2778,1.2778,1.2781,1.278,1.2772,1.2772,1.2772,1.2772,0,1.2736,1.2735,1.2748,1.275,1.2751,1.276,1.2762,1.2769,1.2769,1.2779,1.2781,1.278,1.2789,1.2786,1.2795,1.2794,1.2811,1.2807,1.281,1.281,1.2823,1.2822,1.2862,1.2868,1.2828,1.2829,1.2829,0,1.2751,1.2759,1.2763,1.2768,1.277,1.2778,1.2783,1.278,1.2785,1.279,1.2797,1.2806,1.2812,1.2826,1.2827,1.2834,1.2832,1.2845,1.2833,1.2835,1.2834,1.2834,1.2836,1.2848,1.2848,1.2849,1.2849,0,1.2776,1.2776,1.2783,1.2791,1.2797,1.2803,1.2808,1.2812,1.281,1.2816,1.2826,1.2831,1.2841,1.285,1.2857,1.2859,1.2855,1.2853,1.2857,1.2859,1.2861,1.2862,1.2818,1.2852,1.2852,1.2852,1.2851,1.2851,1.2796,1.2804,1.2809,1.2818,1.2822,1.2827,1.2835,1.2836,1.2844,1.2853,1.285,1.2862,1.2866,1.2876,1.2879,1.2888,1.2883,1.2888,1.2889,1.2891,1.2893,1.2859,1.2889,1.2889,1.2889,1.2889,1.2889,0,1.2823,1.2826,1.2835,1.2843,1.285,1.2846,1.2852,1.2858,1.2869,1.2874,1.2881,1.2893,1.2902,1.2904,1.2913,1.292,1.2919,1.2923,1.2923,1.2924,1.2896,1.2893,1.2924,1.2924,1.2924,1.2924,1.2924,1.2924,1.2838,1.2852,1.2853,1.2869,1.2872,1.2884,1.2888,1.2894,1.2898,1.2912,1.292,1.2922,1.2926,1.2936,1.2945,1.2945,1.2949,1.2955,1.2955,1.2929,1.2925,1.2922,1.2919,1.2956,1.2956,1.2982,1.2982,1.2983]}]]